QPF
0.01 0.01 0.01 0.02 0.02 0.02 0.02 0.02 0.02 0.01 0.01 0.01 0.01 0.01 0.01 0.01 0.01 0.01 0.01 0.00 0.01 0.01 0.01 0.02 0.02 0.01 0.01 0.02 0.02 0.01 0.01 0.01 0.01 0.01 0.01 0.00 0.00 0.00 0.00 0.01 0.01 0.01 0.01
0.01 0.01 0.02 0.02 0.02 0.02 0.02 0.02 0.02 0.02 0.01 0.01 0.01 0.01 0.01 0.01 0.01 0.01 0.01 0.01 0.01 0.01 0.01 0.01 0.01 0.01 0.02 0.01 0.01 0.01 0.00 0.01 0.00 0.00 0.00 0.00 0.00 0.01 0.01 0.01 0.00 0.00 0.01
0.00 0.01 0.02 0.02 0.02 0.02 0.02 0.02 0.02 0.02 0.02 0.01 0.01 0.01 0.01 0.01 0.01 0.02 0.02 0.02 0.02 0.01 0.01 0.02 0.02 0.02 0.03 0.01 0.01 0.01 0.00 0.00 0.00 0.00 0.00 0.00 0.00 0.01 0.01 0.00 0.01 0.01 0.01
0.02 0.01 0.01 0.02 0.02 0.02 0.03 0.03 0.04 0.04 0.03 0.02 0.02 0.02 0.02 0.02 0.02 0.02 0.02 0.03 0.03 0.02 0.01 0.02 0.02 0.02 0.02 0.01 0.01 0.01 0.00 0.00 0.00 0.00 0.00 0.00 0.00 0.01 0.01 0.01 0.01 0.01 0.01
0.02 0.01 0.01 0.02 0.03 0.03 0.02 0.03 0.03 0.03 0.04 0.03 0.03 0.03 0.03 0.03 0.03 0.02 0.02 0.03 0.04 0.02 0.01 0.01 0.01 0.02 0.02 0.02 0.02 0.01 0.00 0.00 0.00 0.00 0.00 0.00 0.00 0.01 0.01 0.00 0.00 0.01 0.01
0.01 0.01 0.01 0.03 0.03 0.04 0.03 0.02 0.03 0.03 0.04 0.04 0.04 0.04 0.05 0.05 0.04 0.03 0.04 0.03 0.03 0.02 0.01 0.02 0.01 0.01 0.01 0.01 0.02 0.01 0.00 0.00 0.00 0.00 0.00 0.00 0.00 0.01 0.01 0.00 0.00 0.00 0.01
0.00 0.00 0.01 0.02 0.03 0.04 0.04 0.03 0.03 0.03 0.04 0.04 0.04 0.05 0.05 0.05 0.05 0.05 0.05 0.04 0.04 0.02 0.02 0.02 0.02 0.02 0.02 0.01 0.02 0.01 0.01 0.00 0.00 0.00 0.00 0.00 0.00 0.01 0.00 0.00 0.00 0.00 0.00
0.01 0.00 0.00 0.01 0.02 0.03 0.03 0.04 0.04 0.04 0.04 0.04 0.04 0.05 0.05 0.05 0.05 0.06 0.05 0.04 0.03 0.03 0.03 0.03 0.03 0.03 0.03 0.03 0.02 0.01 0.01 0.00 0.00 0.00 0.00 0.00 0.00 0.01 0.00 0.00 0.00 0.00 0.00
0.02 0.01 0.01 0.01 0.01 0.02 0.02 0.02 0.02 0.04 0.04 0.05 0.04 0.04 0.04 0.04 0.04 0.05 0.05 0.04 0.03 0.03 0.03 0.03 0.04 0.04 0.04 0.04 0.03 0.02 0.01 0.00 0.00 0.00 0.00 0.00 0.00 0.00 0.01 0.00 0.01 0.00 0.00
0.02 0.02 0.03 0.03 0.03 0.02 0.02 0.01 0.01 0.02 0.03 0.04 0.04 0.04 0.04 0.04 0.03 0.04 0.04 0.03 0.03 0.03 0.03 0.03 0.03 0.04 0.04 0.05 0.04 0.02 0.01 0.01 0.01 0.00 0.00 0.00 0.00 0.01 0.01 0.01 0.01 0.00 0.00
0.01 0.02 0.03 0.04 0.05 0.04 0.02 0.01 0.01 0.01 0.02 0.03 0.03 0.03 0.04 0.04 0.04 0.03 0.02 0.02 0.02 0.03 0.03 0.02 0.03 0.04 0.04 0.04 0.04 0.04 0.02 0.01 0.01 0.01 0.00 0.00 0.00 0.01 0.01 0.01 0.01 0.00 0.00
0.00 0.01 0.02 0.03 0.04 0.05 0.04 0.02 0.01 0.01 0.01 0.02 0.02 0.03 0.04 0.04 0.03 0.03 0.02 0.02 0.02 0.03 0.03 0.03 0.03 0.04 0.04 0.03 0.03 0.04 0.03 0.02 0.02 0.01 0.01 0.00 0.00 0.01 0.01 0.01 0.01 0.00 0.00
0.00 0.00 0.01 0.01 0.03 0.04 0.04 0.03 0.02 0.01 0.01 0.02 0.02 0.03 0.04 0.05 0.04 0.03 0.02 0.02 0.02 0.03 0.03 0.03 0.03 0.03 0.02 0.02 0.02 0.02 0.02 0.02 0.02 0.02 0.01 0.00 0.00 0.01 0.01 0.02 0.02 0.01 0.01
0.00 0.00 0.00 0.01 0.02 0.02 0.03 0.03 0.03 0.01 0.01 0.02 0.03 0.04 0.04 0.04 0.04 0.04 0.03 0.02 0.02 0.02 0.02 0.02 0.02 0.02 0.02 0.02 0.02 0.02 0.02 0.02 0.02 0.02 0.02 0.01 0.00 0.01 0.01 0.02 0.02 0.01 0.01
0.00 0.00 0.00 0.00 0.01 0.01 0.02 0.03 0.02 0.02 0.02 0.02 0.03 0.05 0.05 0.04 0.04 0.04 0.04 0.04 0.03 0.03 0.03 0.03 0.03 0.03 0.03 0.04 0.03 0.02 0.02 0.01 0.01 0.02 0.02 0.03 0.01 0.01 0.01 0.02 0.02 0.01 0.01
0.00 0.00 0.00 0.00 0.00 0.00 0.01 0.02 0.02 0.02 0.02 0.03 0.04 0.05 0.05 0.05 0.04 0.04 0.05 0.05 0.04 0.04 0.03 0.02 0.02 0.03 0.04 0.04 0.04 0.03 0.02 0.02 0.02 0.02 0.02 0.02 0.02 0.01 0.01 0.02 0.02 0.02 0.02
0.00 0.00 0.00 0.00 0.00 0.00 0.00 0.01 0.01 0.01 0.02 0.04 0.05 0.06 0.06 0.05 0.04 0.04 0.05 0.04 0.04 0.05 0.05 0.04 0.04 0.04 0.05 0.05 0.04 0.04 0.03 0.02 0.02 0.02 0.02 0.02 0.02 0.01 0.01 0.01 0.02 0.02 0.02
0.00 0.00 0.00 0.00 0.00 0.00 0.00 0.00 0.00 0.00 0.01 0.04 0.06 0.06 0.08 0.07 0.05 0.04 0.04 0.04 0.05 0.05 0.06 0.06 0.05 0.05 0.05 0.06 0.06 0.05 0.05 0.03 0.02 0.02 0.03 0.03 0.02 0.02 0.01 0.01 0.02 0.03 0.02
0.00 0.00 0.00 0.00 0.00 0.00 0.00 0.00 0.01 0.01 0.01 0.04 0.05 0.06 0.08 0.09 0.07 0.04 0.03 0.04 0.05 0.06 0.07 0.07 0.06 0.05 0.05 0.05 0.07 0.06 0.06 0.05 0.04 0.03 0.03 0.03 0.03 0.03 0.02 0.02 0.02 0.03 0.03
0.00 0.00 0.00 0.00 0.00 0.00 0.00 0.00 0.00 0.01 0.02 0.04 0.05 0.07 0.07 0.08 0.08 0.06 0.03 0.03 0.05 0.07 0.06 0.07 0.08 0.09 0.07 0.06 0.07 0.06 0.06 0.05 0.04 0.03 0.02 0.02 0.03 0.03 0.03 0.04 0.03 0.02 0.03
0.00 0.00 0.01 0.01 0.00 0.00 0.00 0.00 0.01 0.02 0.03 0.04 0.05 0.05 0.07 0.06 0.05 0.05 0.04 0.04 0.05 0.06 0.06 0.07 0.09 0.12 0.13 0.12 0.10 0.08 0.06 0.05 0.05 0.03 0.03 0.03 0.02 0.03 0.04 0.04 0.04 0.04 0.03
0.00 0.00 0.01 0.01 0.00 0.00 0.00 0.01 0.02 0.03 0.02 0.03 0.04 0.04 0.05 0.05 0.04 0.04 0.04 0.04 0.06 0.08 0.08 0.07 0.09 0.11 0.13 0.16 0.16 0.14 0.13 0.11 0.08 0.07 0.06 0.06 0.05 0.05 0.06 0.06 0.06 0.06 0.05
0.00 0.00 0.01 0.01 0.00 0.00 0.00 0.00 0.02 0.03 0.02 0.02 0.02 0.03 0.04 0.04 0.03 0.03 0.03 0.04 0.06 0.09 0.09 0.08 0.09 0.11 0.13 0.15 0.16 0.15 0.13 0.12 0.10 0.09 0.08 0.09 0.09 0.08 0.07 0.07 0.07 0.06 0.06
0.01 0.01 0.01 0.01 0.00 0.00 0.00 0.01 0.02 0.03 0.03 0.02 0.03 0.03 0.04 0.04 0.04 0.04 0.05 0.06 0.05 0.06 0.09 0.09 0.08 0.10 0.14 0.15 0.17 0.16 0.12 0.10 0.10 0.10 0.09 0.09 0.09 0.09 0.10 0.10 0.08 0.07 0.06
0.01 0.01 0.01 0.01 0.01 0.01 0.01 0.01 0.02 0.02 0.02 0.03 0.04 0.06 0.05 0.04 0.03 0.03 0.05 0.05 0.05 0.04 0.05 0.07 0.08 0.09 0.12 0.14 0.15 0.17 0.17 0.14 0.10 0.07 0.07 0.07 0.08 0.09 0.10 0.11 0.11 0.10 0.08
0.01 0.01 0.01 0.01 0.01 0.01 0.01 0.01 0.02 0.02 0.02 0.04 0.05 0.06 0.05 0.04 0.03 0.02 0.02 0.03 0.04 0.04 0.04 0.06 0.07 0.08 0.08 0.11 0.13 0.14 0.15 0.15 0.11 0.07 0.05 0.05 0.06 0.07 0.08 0.08 0.10 0.11 0.11
MSLP
1020.62 1019.92 1019.15 1018.41 1017.78 1017.30 1016.97 1016.76 1016.62 1016.50 1016.37 1016.21 1016.05 1015.91 1015.81 1015.79 1015.83 1015.93 1016.05 1016.17 1016.24 1016.28 1016.27 1016.24 1016.22 1016.20 1016.21 1016.24 1016.28 1016.31 1016.33 1016.34 1016.36 1016.39 1016.45 1016.54 1016.67 1016.82 1016.97 1017.08 1017.15 1017.17 1017.14
1020.98 1020.26 1019.49 1018.76 1018.14 1017.67 1017.35 1017.13 1016.97 1016.82 1016.65 1016.46 1016.26 1016.09 1015.97 1015.92 1015.94 1016.02 1016.11 1016.19 1016.24 1016.26 1016.24 1016.21 1016.19 1016.18 1016.21 1016.24 1016.29 1016.33 1016.35 1016.37 1016.39 1016.43 1016.50 1016.61 1016.76 1016.92 1017.06 1017.18 1017.26 1017.29 1017.28
1021.24 1020.52 1019.77 1019.06 1018.48 1018.05 1017.75 1017.54 1017.37 1017.20 1017.00 1016.77 1016.53 1016.31 1016.14 1016.05 1016.02 1016.04 1016.08 1016.11 1016.12 1016.10 1016.07 1016.03 1016.02 1016.03 1016.08 1016.14 1016.22 1016.29 1016.34 1016.38 1016.43 1016.49 1016.58 1016.70 1016.85 1017.00 1017.14 1017.26 1017.33 1017.37 1017.38
1021.40 1020.71 1019.99 1019.34 1018.81 1018.43 1018.16 1017.96 1017.79 1017.60 1017.36 1017.08 1016.79 1016.52 1016.29 1016.13 1016.04 1015.99 1015.96 1015.93 1015.89 1015.83 1015.78 1015.74 1015.74 1015.78 1015.86 1015.97 1016.09 1016.20 1016.30 1016.39 1016.47 1016.56 1016.67 1016.79 1016.93 1017.07 1017.19 1017.29 1017.35 1017.40 1017.44
1021.49 1020.83 1020.18 1019.60 1019.14 1018.80 1018.57 1018.38 1018.20 1017.97 1017.69 1017.36 1017.01 1016.68 1016.39 1016.17 1016.00 1015.88 1015.79 1015.70 1015.60 1015.51 1015.43 1015.39 1015.40 1015.46 1015.58 1015.74 1015.91 1016.09 1016.24 1016.38 1016.51 1016.63 1016.75 1016.87 1016.99 1017.10 1017.19 1017.26 1017.32 1017.37 1017.43
1021.54 1020.95 1020.36 1019.86 1019.47 1019.18 1018.97 1018.78 1018.56 1018.29 1017.95 1017.57 1017.17 1016.79 1016.45 1016.18 1015.95 1015.77 1015.62 1015.47 1015.32 1015.19 1015.09 1015.04 1015.05 1015.14 1015.29 1015.49 1015.71 1015.93 1016.14 1016.34 1016.50 1016.66 1016.79 1016.90 1017.00 1017.08 1017.14 1017.18 1017.22 1017.28 1017.36
1021.61 1021.08 1020.58 1020.16 1019.82 1019.57 1019.35 1019.13 1018.87 1018.54 1018.15 1017.72 1017.28 1016.87 1016.50 1016.19 1015.93 1015.71 1015.50 1015.30 1015.11 1014.93 1014.80 1014.73 1014.73 1014.82 1014.99 1015.21 1015.46 1015.73 1015.98 1016.21 1016.42 1016.59 1016.74 1016.86 1016.94 1016.99 1017.02 1017.04 1017.07 1017.12 1017.22
1021.71 1021.27 1020.85 1020.50 1020.21 1019.96 1019.72 1019.46 1019.13 1018.75 1018.31 1017.84 1017.38 1016.96 1016.59 1016.27 1015.99 1015.73 1015.48 1015.23 1014.98 1014.76 1014.58 1014.48 1014.45 1014.53 1014.68 1014.90 1015.16 1015.44 1015.72 1015.98 1016.22 1016.42 1016.58 1016.70 1016.78 1016.82 1016.83 1016.84 1016.86 1016.92 1017.03
1021.87 1021.51 1021.18 1020.88 1020.62 1020.37 1020.09 1019.76 1019.37 1018.93 1018.45 1017.97 1017.51 1017.10 1016.74 1016.42 1016.13 1015.85 1015.56 1015.25 1014.94 1014.66 1014.42 1014.26 1014.19 1014.23 1014.35 1014.55 1014.80 1015.07 1015.35 1015.62 1015.87 1016.09 1016.27 1016.41 1016.50 1016.55 1016.57 1016.58 1016.61 1016.67 1016.80
1022.06 1021.79 1021.54 1021.29 1021.04 1020.76 1020.43 1020.03 1019.58 1019.09 1018.59 1018.11 1017.67 1017.29 1016.96 1016.65 1016.35 1016.04 1015.69 1015.32 1014.94 1014.58 1014.27 1014.05 1013.92 1013.90 1013.98 1014.14 1014.36 1014.61 1014.88 1015.14 1015.40 1015.64 1015.84 1016.00 1016.12 1016.20 1016.24 1016.27 1016.31 1016.40 1016.54
1022.27 1022.09 1021.91 1021.70 1021.44 1021.13 1020.74 1020.28 1019.77 1019.25 1018.74 1018.28 1017.87 1017.52 1017.21 1016.91 1016.60 1016.24 1015.83 1015.38 1014.92 1014.48 1014.09 1013.80 1013.62 1013.54 1013.58 1013.69 1013.87 1014.08 1014.33 1014.58 1014.83 1015.07 1015.30 1015.49 1015.64 1015.76 1015.84 1015.91 1015.98 1016.08 1016.24
1022.49 1022.39 1022.25 1022.06 1021.80 1021.44 1020.99 1020.48 1019.93 1019.38 1018.88 1018.44 1018.06 1017.74 1017.45 1017.15 1016.80 1016.38 1015.90 1015.37 1014.82 1014.30 1013.85 1013.50 1013.26 1013.15 1013.14 1013.22 1013.35 1013.53 1013.74 1013.97 1014.21 1014.45 1014.68 1014.90 1015.09 1015.25 1015.37 1015.48 1015.59 1015.71 1015.89
1022.69 1022.65 1022.56 1022.37 1022.08 1021.67 1021.17 1020.61 1020.03 1019.47 1018.97 1018.55 1018.21 1017.90 1017.61 1017.29 1016.90 1016.42 1015.86 1015.25 1014.63 1014.05 1013.54 1013.15 1012.89 1012.74 1012.71 1012.75 1012.86 1013.00 1013.17 1013.36 1013.57 1013.80 1014.03 1014.26 1014.48 1014.67 1014.84 1014.98 1015.12 1015.27 1015.45
1022.87 1022.88 1022.80 1022.60 1022.28 1021.82 1021.28 1020.67 1020.06 1019.50 1019.01 1018.60 1018.26 1017.96 1017.66 1017.30 1016.85 1016.31 1015.69 1015.02 1014.35 1013.73 1013.20 1012.79 1012.52 1012.37 1012.32 1012.34 1012.42 1012.52 1012.65 1012.80 1012.97 1013.17 1013.38 1013.61 1013.83 1014.04 1014.23 1014.40 1014.56 1014.73 1014.92
1023.04 1023.06 1022.98 1022.77 1022.40 1021.90 1021.32 1020.68 1020.05 1019.48 1018.98 1018.58 1018.23 1017.91 1017.57 1017.17 1016.67 1016.08 1015.41 1014.71 1014.02 1013.39 1012.86 1012.47 1012.20 1012.06 1012.00 1012.02 1012.06 1012.13 1012.21 1012.31 1012.43 1012.58 1012.76 1012.96 1013.17 1013.37 1013.57 1013.75 1013.92 1014.10 1014.28
1023.19 1023.22 1023.12 1022.87 1022.47 1021.94 1021.32 1020.66 1020.02 1019.44 1018.93 1018.50 1018.13 1017.77 1017.39 1016.94 1016.40 1015.78 1015.09 1014.38 1013.70 1013.09 1012.59 1012.22 1011.98 1011.84 1011.78 1011.78 1011.79 1011.82 1011.85 1011.89 1011.95 1012.05 1012.17 1012.33 1012.50 1012.69 1012.87 1013.05 1013.22 1013.38 1013.56
1023.34 1023.34 1023.22 1022.94 1022.51 1021.96 1021.33 1020.67 1020.03 1019.43 1018.91 1018.44 1018.03 1017.62 1017.18 1016.68 1016.11 1015.48 1014.80 1014.11 1013.47 1012.90 1012.44 1012.09 1011.86 1011.73 1011.66 1011.62 1011.60 1011.58 1011.56 1011.54 1011.54 1011.58 1011.64 1011.74 1011.87 1012.02 1012.18 1012.33 1012.48 1012.63 1012.79
1023.46 1023.44 1023.29 1022.99 1022.55 1022.01 1021.39 1020.74 1020.11 1019.51 1018.96 1018.46 1017.98 1017.51 1017.02 1016.48 1015.89 1015.26 1014.61 1013.97 1013.37 1012.85 1012.42 1012.10 1011.87 1011.71 1011.61 1011.53 1011.47 1011.40 1011.32 1011.25 1011.20 1011.17 1011.18 1011.23 1011.31 1011.41 1011.53 1011.65 1011.78 1011.90 1012.04
1023.54 1023.50 1023.34 1023.03 1022.61 1022.09 1021.51 1020.90 1020.29 1019.70 1019.13 1018.59 1018.06 1017.52 1016.98 1016.40 1015.81 1015.19 1014.58 1013.99 1013.44 1012.96 1012.56 1012.23 1011.98 1011.79 1011.63 1011.50 1011.38 1011.26 1011.14 1011.03 1010.93 1010.86 1010.82 1010.81 1010.83 1010.89 1010.96 1011.05 1011.15 1011.25 1011.35
1023.57 1023.52 1023.35 1023.06 1022.68 1022.22 1021.70 1021.15 1020.59 1020.01 1019.43 1018.86 1018.27 1017.68 1017.09 1016.49 1015.89 1015.29 1014.72 1014.18 1013.68 1013.23 1012.83 1012.49 1012.19 1011.94 1011.72 1011.53 1011.35 1011.19 1011.03 1010.89 1010.76 1010.65 1010.56 1010.50 1010.48 1010.48 1010.51 1010.56 1010.62 1010.70 1010.78
1023.55 1023.49 1023.33 1023.08 1022.75 1022.36 1021.93 1021.46 1020.96 1020.42 1019.85 1019.25 1018.62 1017.98 1017.35 1016.73 1016.13 1015.56 1015.03 1014.53 1014.07 1013.63 1013.22 1012.84 1012.49 1012.17 1011.88 1011.63 1011.40 1011.20 1011.02 1010.86 1010.70 1010.56 1010.44 1010.33 1010.25 1010.20 1010.18 1010.18 1010.21 1010.26 1010.31
1023.46 1023.42 1023.28 1023.06 1022.80 1022.50 1022.17 1021.79 1021.36 1020.87 1020.32 1019.71 1019.06 1018.40 1017.74 1017.10 1016.51 1015.97 1015.47 1015.00 1014.56 1014.12 1013.69 1013.27 1012.86 1012.47 1012.12 1011.81 1011.55 1011.33 1011.13 1010.95 1010.78 1010.61 1010.44 1010.28 1010.14 1010.02 1009.94 1009.90 1009.89 1009.91 1009.94
1023.35 1023.31 1023.19 1023.02 1022.83 1022.61 1022.37 1022.09 1021.74 1021.31 1020.79 1020.19 1019.54 1018.86 1018.19 1017.56 1016.98 1016.46 1015.98 1015.54 1015.11 1014.67 1014.21 1013.75 1013.28 1012.84 1012.45 1012.10 1011.82 1011.58 1011.38 1011.19 1011.00 1010.79 1010.56 1010.33 1010.10 1009.91 1009.75 1009.65 1009.60 1009.59 1009.60
1023.22 1023.19 1023.10 1022.96 1022.82 1022.68 1022.51 1022.31 1022.04 1021.67 1021.19 1020.62 1019.98 1019.31 1018.65 1018.03 1017.47 1016.97 1016.52 1016.10 1015.67 1015.22 1014.74 1014.25 1013.75 1013.28 1012.85 1012.49 1012.20 1011.96 1011.75 1011.55 1011.32 1011.06 1010.76 1010.44 1010.12 1009.82 1009.58 1009.40 1009.30 1009.26 1009.25
1023.09 1023.08 1023.00 1022.89 1022.78 1022.69 1022.59 1022.45 1022.23 1021.92 1021.49 1020.96 1020.35 1019.71 1019.07 1018.47 1017.94 1017.46 1017.03 1016.62 1016.20 1015.75 1015.26 1014.75 1014.23 1013.74 1013.31 1012.95 1012.66 1012.42 1012.20 1011.98 1011.71 1011.38 1011.00 1010.57 1010.13 1009.73 1009.38 1009.13 1008.96 1008.87 1008.84
1022.98 1022.98 1022.91 1022.82 1022.73 1022.66 1022.60 1022.50 1022.33 1022.07 1021.68 1021.19 1020.63 1020.02 1019.42 1018.85 1018.35 1017.90 1017.49 1017.08 1016.67 1016.21 1015.72 1015.20 1014.69 1014.20 1013.78 1013.43 1013.14 1012.91 1012.68 1012.42 1012.11 1011.70 1011.22 1010.69 1010.13 1009.61 1009.16 1008.82 1008.58 1008.44 1008.37
Thickness
5735 5739 5741 5742 5743 5744 5744 5744 5745 5745 5745 5745 5745 5745 5745 5745 5744 5744 5743 5742 5742 5741 5741 5741 5740 5739 5738 5737 5736 5735 5734 5733 5733 5732 5731 5730 5730 5729 5728 5727 5726 5726 5725
5733 5735 5737 5739 5739 5740 5740 5741 5741 5741 5741 5742 5742 5742 5742 5742 5741 5741 5740 5740 5740 5739 5738 5738 5737 5736 5735 5734 5733 5732 5731 5730 5729 5728 5728 5727 5726 5726 5725 5724 5723 5722 5722
5730 5732 5733 5735 5735 5736 5736 5737 5737 5737 5738 5738 5738 5738 5738 5738 5738 5738 5738 5737 5737 5736 5736 5735 5734 5733 5732 5731 5730 5729 5728 5727 5726 5725 5725 5724 5723 5723 5722 5721 5720 5719 5718
5725 5727 5729 5730 5731 5731 5732 5732 5733 5733 5733 5734 5734 5735 5735 5735 5735 5735 5735 5734 5734 5733 5733 5732 5731 5730 5729 5728 5727 5726 5725 5724 5723 5722 5721 5721 5720 5720 5719 5718 5717 5716 5715
5720 5722 5724 5725 5726 5727 5727 5727 5728 5729 5729 5730 5730 5731 5731 5731 5731 5731 5731 5731 5731 5730 5730 5729 5728 5727 5726 5725 5724 5723 5722 5721 5720 5719 5718 5718 5717 5717 5716 5715 5714 5713 5712
5714 5716 5718 5720 5721 5722 5722 5723 5724 5724 5725 5725 5726 5726 5727 5727 5728 5728 5728 5728 5727 5727 5726 5726 5725 5724 5723 5722 5721 5720 5719 5718 5717 5716 5715 5715 5714 5714 5713 5712 5711 5710 5709
5707 5710 5712 5713 5715 5716 5717 5718 5719 5719 5720 5721 5722 5722 5723 5723 5724 5724 5724 5724 5724 5723 5723 5722 5722 5721 5720 5719 5718 5717 5716 5714 5713 5712 5712 5711 5711 5711 5710 5709 5708 5707 5706
5700 5703 5705 5706 5708 5709 5711 5712 5713 5714 5715 5716 5717 5718 5718 5719 5719 5719 5720 5720 5720 5720 5719 5719 5718 5718 5717 5716 5715 5714 5712 5711 5710 5709 5708 5708 5708 5707 5707 5706 5705 5704 5702
5693 5696 5698 5699 5701 5702 5704 5706 5707 5709 5710 5711 5712 5712 5713 5714 5714 5715 5715 5715 5715 5715 5715 5715 5715 5714 5713 5713 5711 5710 5709 5708 5707 5706 5705 5705 5705 5704 5704 5702 5701 5700 5699
5685 5687 5689 5691 5693 5695 5697 5699 5700 5702 5703 5705 5706 5707 5708 5708 5709 5710 5710 5711 5711 5711 5711 5711 5711 5710 5710 5709 5708 5707 5706 5704 5703 5703 5702 5702 5701 5701 5700 5699 5698 5697 5696
5676 5678 5680 5683 5685 5687 5689 5691 5693 5695 5696 5698 5699 5701 5702 5703 5703 5704 5705 5706 5706 5706 5706 5706 5706 5706 5706 5705 5704 5703 5702 5701 5700 5699 5698 5698 5697 5697 5697 5696 5694 5693 5692
5666 5668 5671 5674 5676 5679 5681 5683 5685 5687 5689 5690 5692 5693 5695 5696 5697 5698 5699 5700 5701 5701 5701 5701 5701 5701 5701 5701 5700 5699 5698 5697 5696 5695 5695 5694 5694 5694 5693 5692 5691 5690 5689
5656 5659 5662 5665 5667 5670 5672 5675 5677 5679 5681 5683 5684 5686 5687 5689 5690 5691 5692 5693 5694 5695 5696 5696 5696 5696 5696 5695 5695 5695 5694 5693 5692 5691 5691 5691 5690 5690 5690 5689 5688 5686 5685
5647 5650 5653 5656 5659 5661 5664 5666 5668 5671 5672 5674 5676 5678 5679 5680 5682 5684 5685 5686 5687 5688 5689 5690 5690 5690 5690 5690 5690 5690 5689 5689 5688 5688 5688 5687 5687 5686 5686 5685 5684 5683 5681
5639 5642 5645 5648 5650 5653 5655 5658 5660 5662 5664 5666 5668 5669 5671 5672 5673 5675 5677 5678 5679 5680 5682 5683 5683 5683 5684 5684 5684 5684 5684 5684 5684 5684 5683 5683 5683 5682 5682 5681 5680 5679 5678
5631 5633 5636 5639 5641 5644 5646 5649 5651 5653 5656 5658 5660 5661 5662 5663 5665 5667 5668 5669 5671 5672 5673 5675 5676 5677 5677 5678 5678 5678 5679 5679 5679 5679 5679 5678 5678 5678 5677 5677 5676 5675 5674
5621 5624 5627 5631 5633 5635 5637 5640 5642 5644 5646 5648 5650 5652 5653 5655 5656 5658 5659 5661 5663 5664 5665 5666 5668 5669 5670 5670 5671 5672 5673 5673 5674 5674 5674 5673 5673 5673 5672 5672 5672 5671 5670
5613 5615 5618 5621 5624 5626 5629 5631 5633 5635 5636 5638 5640 5642 5644 5645 5647 5648 5650 5652 5654 5655 5656 5657 5659 5660 5661 5663 5664 5665 5666 5667 5667 5668 5668 5668 5668 5667 5667 5667 5666 5665 5664
5603 5606 5609 5612 5614 5617 5620 5622 5624 5625 5626 5628 5630 5632 5634 5635 5637 5638 5640 5642 5644 5645 5646 5648 5650 5651 5652 5654 5656 5657 5658 5659 5660 5661 5662 5662 5662 5662 5661 5661 5660 5659 5658
5594 5597 5599 5603 5605 5608 5610 5613 5614 5616 5617 5618 5619 5621 5623 5625 5626 5628 5630 5632 5633 5635 5636 5638 5639 5641 5643 5645 5647 5649 5650 5651 5653 5654 5655 5655 5656 5656 5655 5654 5653 5652 5652
5585 5587 5590 5593 5595 5597 5600 5601 5603 5604 5606 5607 5609 5611 5613 5615 5616 5617 5619 5620 5622 5624 5626 5627 5629 5631 5633 5634 5635 5637 5640 5643 5645 5647 5647 5648 5649 5649 5648 5647 5646 5645 5644
5575 5578 5581 5583 5585 5587 5589 5590 5592 5594 5596 5598 5599 5601 5603 5605 5606 5606 5608 5610 5611 5612 5614 5616 5617 5619 5622 5623 5624 5626 5628 5631 5636 5639 5639 5640 5641 5641 5640 5639 5639 5637 5636
5566 5568 5572 5573 5576 5578 5580 5582 5583 5585 5586 5587 5589 5590 5592 5593 5594 5595 5597 5598 5599 5601 5603 5605 5606 5608 5610 5612 5614 5616 5618 5622 5624 5627 5629 5630 5631 5631 5631 5630 5630 5629 5628
5559 5560 5562 5564 5567 5569 5571 5572 5573 5574 5574 5576 5576 5578 5581 5582 5583 5584 5585 5587 5588 5590 5591 5593 5595 5597 5599 5601 5603 5606 5608 5611 5612 5615 5617 5619 5620 5620 5620 5621 5620 5619 5618
5551 5552 5554 5556 5558 5560 5561 5562 5562 5563 5563 5564 5565 5567 5569 5571 5572 5573 5574 5576 5577 5579 5580 5582 5584 5585 5587 5590 5592 5594 5595 5597 5601 5602 5605 5607 5607 5609 5609 5609 5609 5609 5608
5544 5545 5546 5548 5549 5550 5551 5552 5552 5553 5553 5554 5555 5556 5558 5560 5562 5563 5564 5565 5567 5568 5570 5572 5573 5574 5576 5579 5581 5583 5585 5586 5588 5590 5593 5595 5596 5598 5598 5598 5598 5598 5599